Regional Weather Roundup
Issued by NWS State College, PA

Home | Current Version | Previous Version | Text Only | Print | Product List | Glossary On
Versions: 1 2 3 4 5 6 7 8 9 10 11 12 13 14 15 16 17 18 19 20 21 22 23 24 25 26 27 28 29 30 31 32 33 34 35 36 37 38 39 40 41 42 43 44 45 46 47 48 49 50
000
ASUS41 KCTP 221410
RWRCTP

REGIONAL WEATHER ROUNDUP
NATIONAL WEATHER SERVICE STATE COLLEGE PA
1000 AM EDT WED MAR 22 2017

Note: "fair" indicates few or no clouds below 12,000 feet with no
significant weather and/or obstructions to visibility.

* = STATION THAT DOES NOT REPORT PRECIPITATION /E.G. RAIN...SNOW...ETC/
    THUNDER OR FOG.

PAZ002>004-007>009-013>016-020>023-029>032-221500-
WESTERN PENNSYLVANIA

CITY           SKY/WX    TMP DP  RH WIND       PRES   REMARKS
ERIE           CLOUDY    24  11  57 N15G22    30.46R WCI  11
MEADVILLE      MOSUNNY   23   6  48 N15G24    30.38R WCI  10
FRANKLIN*      CLOUDY    21   9  58 N8        30.37R WCI  12
NEW CASTLE     CLOUDY    26  12  55 N14G21    30.41R WCI  14
BEAVER COUNTY  MOSUNNY   27   9  46 N15G23    30.38R WCI  15
BUTLER*        MOSUNNY   28  10  47 NW12G18   30.37R
PITTSBURGH INT PTSUNNY   28  14  55 N15G23    30.36R
PITTSBURGH     CLOUDY    28  13  53 N13G23    30.34R
INDIANA*       SUNNY     27  10  50 N12G22    30.35R
LATROBE        PTSUNNY   28  14  54 N12G21    30.34R
WASHINGTON CO* CLOUDY    28  14  54 NW9       30.38R
$$

PAZ004>006-010>012-017>019-024>028-033>037-041-042-045-046-049>053-221500-
CENTRAL PENNSYLVANIA

CITY           SKY/WX    TMP DP  RH WIND       PRES   REMARKS
BRADFORD       SUNNY     17   3  54 NW21      30.26R WCI   0
DUBOIS         MOSUNNY   21   5  50 NW8G16    30.27R WCI  11
CLEARFIELD       N/A    N/A N/A N/A MISG      30.28R
JOHNSTOWN      FLURRIES  25  17  72 NW21G31   30.20R WCI  11
ALTOONA        CLOUDY    29  17  61 NW18      30.24R
STATE COLLEGE  MOSUNNY   30   7  37 NW16G23   30.24R
WILLIAMSPORT   MOSUNNY   31   5  33 N16G28    30.26R
SELINSGROVE    SUNNY     33  11  39 N21G30    30.24R
FT INDIANTOWN  MOSUNNY   33   7  33 NW13G29   30.19R
CAPITAL CITY   SUNNY     37   9  31 N16G29    30.21R
HARRISBURG     MOSUNNY   37   8  30 N25G36    30.20R
YORK           SUNNY     37  16  42 NW16G33   30.19R
$$

PAZ038>040-043-044-047-048-054-055-060>062-067>071-221500-
EASTERN PENNSYLVANIA

CITY           SKY/WX    TMP DP  RH WIND       PRES   REMARKS
SCRANTON       LGT SNOW  23  16  74 N20G30    30.18R WCI   8
MOUNT POCONO   PTSUNNY   21   9  59 NW22G38   30.04R WCI   5
ALLENTOWN      MOSUNNY   35  13  40 NW16G25   30.15R
QUAKERTOWN*    MOSUNNY   34  12  40 NW16G22   30.14R
READING        SUNNY     35  12  38 NW25G36   30.18R
LANCASTER      SUNNY     37  13  37 NW25G37   30.17R
COATESVILLE    SUNNY     36  14  41 NW28G35   30.15R
POTTSTOWN      SUNNY     35  12  38 NW13G32   30.16R
BLUE BELL      MOSUNNY   34  12  40 NW15G25   30.14R
DOYLESTOWN     MOSUNNY   28  13  53 N17G29    30.12R
WILLOW GROVE   NOT AVBL
NORTH PHILA    SUNNY     38  15  39 N26G36    30.15R
PHILADELPHIA   MOSUNNY   39  11  31 NW29G40   30.15R
$$




USA.gov is the U.S. government's official web portal to all federal, state and local government web resources and services.